Regional Weather Roundup
Issued by NWS

Home | Current Version | Previous Version | Graphics & Text | Print | Product List | Glossary On
Versions: 1 2 3 4 5 6 7 8 9 10 11 12 13 14 15 16 17 18 19 20 21 22 23 24 25 26 27 28 29 30 31 32 33 34 35 36 37 38 39 40 41 42 43 44 45 46 47 48 49 50
000
ASUS45 KABQ 031701
RWRNM
NEW MEXICO REGIONAL WEATHER ROUNDUP
NATIONAL WEATHER SERVICE ALBUQUERQUE NM
1100 AM MDT THU SEP 03 2015

NOTE: "FAIR" MEANS FEW OR NO CLOUDS BELOW 12,000 FEET AGL WITH NO
       SIGNIFICANT WEATHER OR OBSTRUCTIONS TO VISION.

      THIS PRODUCT IS RELEASED AS TWO VERSIONS.  ONE VERSION NEAR
      THE TOP OF THE HOUR CONTAINING PRELIMINARY DATA FROM ALBUQUERQUE
      AND OTHER STATIONS.  A FINAL VERSION WITH ADDITIONAL DATA IS
      ISSUED ABOUT 10 MINUTES AFTER THE HOUR.

NMZ501-503-504-510>518-031800-
NORTHWEST PLATEAU/NORTHCENTRAL MOUNTAINS

CITY           SKY/WX    TMP DP  RH WIND       PRES   REMARKS
FARMINGTON     SUNNY     73  49  42 VRB3      30.17S
LOS ALAMOS     CLOUDY    66  48  52 CALM      30.28R
SANTA FE       CLOUDY    70  47  43 SW10      30.22S
TAOS           CLOUDY    66  43  42 W3        30.28F
ANGEL FIRE     FAIR      62  46  57 W10       30.33S

$$
NMZ402-403-502-505>509-031800-
WESTCENTRAL MOUNTAINS/SOUTHWEST MOUNTAINS

CITY           SKY/WX    TMP DP  RH WIND       PRES   REMARKS
GALLUP         SUNNY     74  48  39 SW10      30.25S
GRANTS         SUNNY     71  51  50 NE5       30.27F
SILVER CITY      N/A     75  54  46 S8        30.21S

$$
NMZ407-409-411-412-031800-
SOUTHERN DESERTS

CITY           SKY/WX    TMP DP  RH WIND       PRES   REMARKS
DEMING         PTSUNNY   80  56  43 W8        30.12S
HOLLOMAN AFB   PTSUNNY   84  48  28 W3        30.08R
ALAMOGORDO     PTSUNNY   82  46  28 W6        30.10S
T OR C         PTSUNNY   78  54  43 VRB3      30.14R

$$
NMZ519>523-031800-
CENTRAL VALLEYS/CENTRAL HIGHLANDS

CITY           SKY/WX    TMP DP  RH WIND       PRES   REMARKS
ALBUQUERQUE    MOSUNNY   74  49  41 W8        30.19S
DOUBLE EAGLE   MOSUNNY   75  50  41 NW3       30.22S
MORIARTY ARPT  FAIR      76  42  29 NW7       30.23S
CLINES CORNERS PTSUNNY   71  45  39 W16       30.25S
BELEN          FAIR      77  46  32 NW5       30.18S
SOCORRO        NOT AVBL

$$
NMZ524>526-539-540-031800-
SOUTHCENTRAL MOUNTAINS

CITY           SKY/WX    TMP DP  RH WIND       PRES   REMARKS
RUIDOSO        NOT AVBL

$$
NMZ527>531-031800-
NORTHEAST HIGHLANDS/NORTHEAST PLAINS

CITY           SKY/WX    TMP DP  RH WIND       PRES   REMARKS
LAS VEGAS      CLOUDY    71  45  39 SW15      30.21S
RATON          CLOUDY    73  49  42 S7        30.13F
CLAYTON        PTSUNNY   83  51  33 SW16      30.05F

$$
NMZ532>537-031800-
EASTCENTRAL PLAINS

CITY           SKY/WX    TMP DP  RH WIND       PRES   REMARKS
TUCUMCARI      PTSUNNY   88  48  25 SW17      30.02F
CANNON AFB     SUNNY     87  50  28 SW12      30.07S
CLOVIS AIRPORT SUNNY     88  52  29 SW12      30.07F

$$
NMZ028-029-538-031800-
SOUTHEAST PLAINS

CITY           SKY/WX    TMP DP  RH WIND       PRES   REMARKS
ROSWELL        SUNNY     85  53  33 NE7       30.04F
ARTESIA        SUNNY     84  55  37 SW3       30.04S
CARLSBAD       SUNNY     88  55  32 E7        30.02S
HOBBS          SUNNY     82  57  42 SE15      30.08S


$$


USA.gov is the U.S. government's official web portal to all federal, state and local government web resources and services.